星链-1912 (STARLINK-1912 )

导读 | 豆包AI

STARLINK-1912是美国太空探索技术公司(SpaceX)于2020年11月25日发射的星链(Starlink)低轨互联网卫星,属于V1.0版本,纳入全球巨型低轨卫星星座组网。该卫星运行在近地轨道,为全球提供高速宽带互联网接入服务,能为网络基础设施匮乏区域接入网络,是星链计划万颗卫星组网布局中的一颗现役卫星。

基本信息
目录编号:
47178
目录名称:
STARLINK-1912
国际标识:
2020-088BJ
轨道中心:
EARTH
卫星名称:
星链-1912
卫星全名:
星链-1912 (STARLINK-1912 )
卫星状态:
在轨 (已飞行1935 天)
发射日期:
2020-11-25 UTC
国别 :
美国 (US)
星等 :
--
轨道信息
数据来源 国际轨道数据
星历时间: 2026-03-14T08:00:02+0800
11小时前
查看轨道信息
半长轴: 6774.962km
偏心率: 0.0006935
轨道倾角: 53.051°
近地点辐角 181.400°
升交点赤经 260.571°
平近点角 87.924°
近地点: 392.126km
远地点: 401.524km
周期: 92.495分钟
每日圈数: 15.568348
详细信息
固有亮度:
5
最大亮度:
2.5
卫星平台:
Starlink V1.0
覆盖范围:
全球
运营商:
太空探索技术公司
运营商所在国:
美国
制造商(研发单位):
太空探索技术公司
制造商所在国:
美国
使用方式:
暂无
卫星简介
星链(Starlink)计划是由太空探索技术公司(SpaceX)提出的一个巨型低轨卫星互联网星座项目,计划在2019年至2024年间在太空搭建由约1.2万颗卫星组成的“星链”网络,其中1584颗将部署在地球上空550千米处的近地轨道,并从2020年开始工作。该卫星仍在工作。
2D轨道图
3D轨道图
轨道高度分析图
轨道倾角分析图
轨道综合分析图
查看轨道综合分析图